Location: Gollag?dem
(17.0207°N, 80.7261°E)
Time: 01:22:39
(UTC+00:00)

ISS - Pass Details

Date: 03 August 2024
Orbit: 414 x 425 km, 51.6° (Epoch: 12 September)

Event Time Altitude Azimuth Distance (km) Brightness Sun altitude
Rises 14:35:11 0° 308° (NW) 2,362 1.5 -20.0°
Reaches altitude 10° 14:37:27 10° 297° (WNW) 1,491 0.2 -20.5°
Maximum altitude 14:40:24 29° 235° (SW) 786 -2.2 -21.1°
Enters shadow 14:40:56 28° 216° (SW) 817 -2.3 -21.2°
